Tracking 25656 objects as of 21-May-2022
HD Live streaming from Space Station
objects crossing your sky now

SL-14 R/B

Track SL-14 R/B now!
10-day predictions


NORAD ID: 10096
Int'l Code: 1977-055B
Perigee: 578.5 km
Apogee: 638.2 km
Inclination: 75.8 °
Period: 96.7 minutes
Semi major axis: 6979 km
RCS: 3.6575 m2 (large)
Launch date: June 24, 1977
Source: Commonwealth of Independent States (former USSR) (CIS)
Launch site: PLESETSK MISSILE AND SPACE COMPLEX (PKMTR)

Note: This is a ROCKET BODY
aabbcc
Your satellite tracking list
Your tracking list is empty




NASA's NSSDC Master Catalog

Two Line Element Set (TLE):
1 10096U 77055B   22141.17947445  .00000742  00000-0  79935-4 0  9991
2 10096  75.8364  43.6348 0042784 302.4078  57.2976 14.88940829429934
Source of the keplerian elements: AFSPC